STARLINK-30102 (57434 NORAD) Tracking and Keplerian Element Data

This shows tracking and keplerian element data for the satellite.

Feedback or suggestion? Click here.




ElementValue
Catalog57434
NameSTARLINK-30102
Epoch Orbit2715
Epoch Day12.9015085
Epoch Year2024
RAAN217.1397
Inclination43.0001
Eccentricity0.0001505
Argument of Perigee264.5033
Mean Anonmoly95.5638
Mean Motion15.02539519
Decay Rate4.446E-05
L11 57434U 23105E 24012.90150850 .00004446 00000+0 34398-3 0 9998
L22 57434 43.0001 217.1397 0001505 264.5033 95.5638 15.02539519 27158



Live tracking and technical data element details for STARLINK-30102 (NORAD 57434). STARLINK-30102 can be tracked NOW for your location showing map with azimuth and elevation plus other details from your city location.







IsCatalogInMostPopularTable: catalog: 57434, numindb: 5
Update: records affected: 1



GetName: 57434 STARLINK-30102

Hit Count: updated at: Thu, 22 Feb 2024 02:09:59 GMT